Home > Weather > Røyken > Past weeks

Flag for Norway Weather for the Past 2 Weeks in Røyken, Norway

Now
48 °F

Partly sunny.


Feels Like: 40 °F
Forecast: 36 / 65 °F
Wind: 25 mph from South

Location: Statfjord B

Current Time: May 6, 2016 at 1:55:46 PM

Latest Report: May 6, 2016 at 12:50 PM


Visibility: 4 mi

Pressure: 30.04 "Hg

Humidity: 94%

Dew Point: 46 °F

Location of RøykenLocation

Historic Weather in Røyken — Graph

°F

Røyken Temperature Yesterday

Maximum temperature yesterday: 48 °F (at 8:50 AM)
Minimum temperature yesterday: 46 °F (at 12:20 AM)
Average temperature yesterday: 47 °F

High & Low Weather Summary for the Past Weeks

 TemperatureHumidityPressure
High50 °F (May 4, 8:50 AM)100% (Apr 23, 5:50 AM)30.27 "Hg (Apr 23, 5:50 AM)
Low30 °F (Apr 23, 6:20 AM)50% (Apr 28, 10:50 AM)29.53 "Hg (May 2, 9:50 AM)
Average43 °F78%29.90 "Hg
* Reported Apr 21 12:20 PM — May 6 12:20 PM, Røyken, Weather by CustomWeather, © 2016

Note: Actual official high and low records may vary slightly from our data, if they occured in-between our weather recording intervals... More about our weather records

Advertising

Røyken Weather History for the Previous 24 Hours

Scroll right to see more
 ConditionsComfort  
Time TempWeatherWind HumidityBarometerVisibility
12:20 PM
Fri, May 6
48 °FScattered clouds.22 mph94%30.04 "Hg5 mi
11:50 AM50 °FPassing clouds.23 mph88%30.04 "Hg6 mi
11:20 AM48 °FPartly sunny.24 mph87%30.01 "Hg6 mi
10:50 AM48 °FPassing clouds.25 mph94%30.01 "Hg6 mi
10:20 AM48 °FScattered clouds.25 mph94%30.01 "HgN/A
9:50 AM46 °FPartly sunny.26 mph100%30.01 "Hg6 mi
9:20 AM46 °FPartly sunny.24 mph100%30.01 "Hg6 mi
8:50 AM46 °FPartly sunny.25 mph100%30.01 "Hg5 mi
8:20 AM46 °FPartly sunny.25 mph100%30.01 "Hg4 mi
7:50 AM46 °FPartly sunny.24 mph100%30.01 "Hg4 mi
7:20 AM46 °FPartly sunny.24 mph100%30.01 "Hg4 mi
6:50 AM46 °FPartly sunny.24 mph100%30.01 "Hg4 mi
6:20 AM46 °FBroken clouds.23 mph100%30.01 "Hg5 mi
5:50 AM46 °FPartly cloudy.23 mph100%30.01 "Hg5 mi
5:20 AM46 °FPassing clouds.24 mph100%30.01 "Hg5 mi
4:50 AM46 °FPassing clouds.25 mph100%30.01 "Hg4 mi
4:20 AM46 °FPassing clouds.25 mph100%30.01 "Hg4 mi
3:50 AM46 °FPassing clouds.24 mph93%30.01 "Hg4 mi
3:20 AM46 °FCool.26 mph93%30.01 "Hg6 mi
2:50 AM46 °FCool.26 mph93%30.01 "Hg6 mi
2:20 AM46 °FCool.28 mph93%30.01 "Hg6 mi
1:50 AM46 °FCool.29 mph93%30.01 "Hg6 mi
1:20 AM46 °FCool.32 mph93%30.01 "HgN/A
12:50 AM46 °FCool.32 mph93%30.01 "HgN/A
12:20 AM46 °FCool.32 mph93%29.98 "Hg6 mi
11:50 PM
Thu, May 5
46 °FCool.32 mph93%29.98 "Hg6 mi
11:20 PM46 °FPassing clouds.35 mph93%29.98 "Hg6 mi
10:50 PM46 °FPassing clouds.37 mph93%29.98 "HgN/A
10:20 PM46 °FCool.38 mph93%29.98 "HgN/A
9:50 PM46 °FCool.39 mph93%29.95 "HgN/A
9:20 PM48 °FScattered clouds.39 mph87%29.95 "HgN/A
8:50 PM48 °FBroken clouds.39 mph87%29.95 "HgN/A
8:20 PM48 °FScattered clouds.40 mph87%29.92 "HgN/A
7:50 PM48 °FScattered clouds.37 mph87%29.92 "Hg6 mi
7:20 PM48 °FScattered clouds.38 mph87%29.92 "HgN/A
6:50 PM48 °FPartly sunny.39 mph87%29.92 "Hg6 mi
6:20 PM48 °FPartly sunny.40 mph87%29.92 "HgN/A
5:50 PM48 °FPartly sunny.39 mph87%29.92 "HgN/A
5:20 PM48 °FPartly sunny.41 mph87%29.92 "HgN/A
4:50 PM48 °FBroken clouds.40 mph87%29.92 "HgN/A
4:20 PM48 °FPartly sunny.38 mph87%29.92 "HgN/A
3:50 PM46 °FSprinkles. Partly sunny.40 mph93%29.92 "Hg4 mi
3:20 PM46 °FSprinkles. Broken clouds.36 mph93%29.95 "Hg4 mi
2:50 PM48 °FSprinkles. Partly sunny.37 mph87%29.95 "HgN/A
2:20 PM48 °FSprinkles. Broken clouds.40 mph87%29.95 "HgN/A
1:50 PM48 °FLight rain. Partly sunny.44 mph87%29.92 "Hg6 mi
1:20 PM48 °FPartly sunny.41 mph87%29.92 "HgN/A
Weather by CustomWeather, © 2016

See weather overviewHow to use our weather pages